Tracking 19794 objects as of 21-Jul-2019
HD Live streaming from Space Station
objects crossing your sky now

COSMOS 1275 DEB

Track COSMOS 1275 DEB now!
10-day predictions


NORAD ID: 12692
Int'l Code: 1981-053AL
Perigee: 759.5 km
Apogee: 870.4 km
Inclination: 82.9 °
Period: 101.0 minutes
Semi major axis: 7185 km
RCS: 0.5057 m2 (medium)
Launch date: June 4, 1981
Source: Commonwealth of Independent States (former USSR) (CIS)
Launch site: PLESETSK MISSILE AND SPACE COMPLEX (PKMTR)

Note: This is SATELLITE DEBRIS
aabbcc
Your satellite tracking list
Your tracking list is empty




NASA's NSSDC Master Catalog

Two Line Element Set (TLE):
1 12692U 81053AL  19201.78477280 +.00000166 +00000-0 +60906-4 0  9991
2 12692 082.9003 287.6513 0077181 127.9151 232.9044 14.25197908957917
Source of the keplerian elements: AFSPC